• In Czech Republic
  • List of Countries
  • For 7 days
  • Water Temperature
  • Satellite Maps
  • Weather Map
  • Weather Widgets
  • user-avatar
    Login

    Hourly Weather Kalat

    Today, 20 May, Sunday

    Time Temperature Precipitation Wind Pressure Humidity
    00:00 -2°C° 0.1 mm 1 mps 474 mmHg 83%
    01:00 -3°C° 0.1 mm 1 mps 474 mmHg 82%
    02:00 -3°C° 0.1 mm 1 mps 474 mmHg 82%
    03:00 -5°C° 0.1 mm 2 mps 473 mmHg 81%
    04:00 -6°C° 0.1 mm 2 mps 473 mmHg 81%
    05:00 -7°C° 0 mm 2 mps 472 mmHg 77%
    06:00 -6°C° 0 mm 2 mps 473 mmHg 74%
    07:00 -4°C° 0 mm 2 mps 474 mmHg 71%
    08:00 -3°C° 0 mm 2 mps 475 mmHg 67%
    09:00 -2°C° 0.1 mm 2 mps 476 mmHg 66%
    10:00 -1°C° 0.1 mm 3 mps 477 mmHg 65%
    11:00 -1°C° 0 mm 3 mps 477 mmHg 62%
    12:00 0°C° 0.4 mm 3 mps 477 mmHg 64%
    13:00 0°C° 0.4 mm 3 mps 477 mmHg 65%
    14:00 0°C° 0.4 mm 3 mps 477 mmHg 67%
    15:00 0°C° 0.6 mm 3 mps 477 mmHg 68%
    16:00 -1°C° 0.6 mm 3 mps 477 mmHg 69%
    17:00 -1°C° 0.6 mm 3 mps 477 mmHg 70%
    18:00 -2°C° 0.3 mm 2 mps 476 mmHg 73%
    19:00 -2°C° 0.3 mm 2 mps 476 mmHg 75%
    20:00 -1°C° 0.3 mm 1 mps 476 mmHg 77%
    21:00 -3°C° 0.1 mm 2 mps 476 mmHg 78%
    22:00 -3°C° 0.1 mm 2 mps 476 mmHg 78%
    23:00 -4°C° 0.1 mm 2 mps 476 mmHg 78%

    Tomorrow, 21 May, Monday

    Time Temperature Precipitation Wind Pressure Humidity
    00:00 -4°C° 0 mm 2 mps 475 mmHg 77%
    01:00 -4°C° 0 mm 2 mps 475 mmHg 76%
    02:00 -5°C° 0 mm 2 mps 475 mmHg 75%
    03:00 -5°C° 0 mm 2 mps 475 mmHg 74%
    04:00 -6°C° 0 mm 3 mps 474 mmHg 72%
    05:00 -6°C° 0 mm 3 mps 474 mmHg 71%
    06:00 -5°C° 0 mm 3 mps 475 mmHg 68%
    07:00 -3°C° 0 mm 2 mps 476 mmHg 66%
    08:00 -1°C° 0 mm 2 mps 477 mmHg 64%
    09:00 -1°C° 0.2 mm 3 mps 477 mmHg 63%
    10:00 0°C° 0.2 mm 3 mps 478 mmHg 63%
    11:00 +1°C° 0.2 mm 3 mps 478 mmHg 62%
    12:00 +1°C° 0.5 mm 3 mps 478 mmHg 63%
    13:00 0°C° 0.5 mm 4 mps 478 mmHg 65%
    14:00 0°C° 0.5 mm 4 mps 478 mmHg 66%
    15:00 +1°C° 0.5 mm 3 mps 478 mmHg 65%
    16:00 +1°C° 0.5 mm 3 mps 478 mmHg 64%
    17:00 +1°C° 0.5 mm 3 mps 478 mmHg 63%
    18:00 +1°C° 0.2 mm 2 mps 478 mmHg 67%
    19:00 -2°C° 0.2 mm 2 mps 477 mmHg 71%
    20:00 -1°C° 0.2 mm 1 mps 476 mmHg 75%
    21:00 -1°C° 0.3 mm 1 mps 476 mmHg 75%
    22:00 -1°C° 0.3 mm 1 mps 476 mmHg 75%
    23:00 -1°C° 0.3 mm 1 mps 476 mmHg 75%

    Day after tomorrow, 22 May, Tuesday

    Time Temperature Precipitation Wind Pressure Humidity
    00:00 -1°C° 0.2 mm 1 mps 476 mmHg 75%
    01:00 -1°C° 0.2 mm 1 mps 476 mmHg 74%
    02:00 -4°C° 0.2 mm 2 mps 476 mmHg 74%
    03:00 -4°C° 0.1 mm 2 mps 475 mmHg 75%
    04:00 -4°C° 0.1 mm 2 mps 475 mmHg 76%
    05:00 -4°C° 0.1 mm 2 mps 475 mmHg 77%
    06:00 -3°C° 0.1 mm 2 mps 476 mmHg 75%
    07:00 -2°C° 0.1 mm 2 mps 477 mmHg 73%
    08:00 -1°C° 0.1 mm 2 mps 477 mmHg 71%
    09:00 +1°C° 0.3 mm 2 mps 478 mmHg 68%
    10:00 0°C° 0.3 mm 3 mps 478 mmHg 65%
    11:00 +1°C° 0.3 mm 3 mps 479 mmHg 62%
    12:00 +1°C° 0.5 mm 3 mps 479 mmHg 62%
    13:00 +2°C° 0.5 mm 3 mps 479 mmHg 62%
    14:00 +2°C° 0.5 mm 3 mps 479 mmHg 62%
    15:00 +2°C° 0.3 mm 3 mps 479 mmHg 62%
    16:00 +3°C° 0.3 mm 2 mps 479 mmHg 62%
    17:00 +2°C° 0.3 mm 2 mps 478 mmHg 61%
    18:00 +2°C° 0.1 mm 1 mps 478 mmHg 64%
    19:00 +1°C° 0.1 mm 1 mps 477 mmHg 67%
    20:00 0°C° 0.1 mm 1 mps 477 mmHg 69%
    21:00 0°C° 0 mm 1 mps 476 mmHg 69%
    22:00 -1°C° 0 mm 1 mps 476 mmHg 68%
    23:00 -1°C° 0 mm 1 mps 476 mmHg 67%

    23 May, Wednesday

    Time Temperature Precipitation Wind Pressure Humidity
    00:00 -1°C° 0 mm 1 mps 476 mmHg 68%
    01:00 -1°C° 0 mm 1 mps 476 mmHg 68%
    02:00 -2°C° 0 mm 1 mps 475 mmHg 68%
    03:00 -2°C° 0.1 mm 1 mps 475 mmHg 67%
    04:00 -2°C° 0.1 mm 1 mps 475 mmHg 67%
    05:00 -2°C° 0.1 mm 1 mps 475 mmHg 67%
    06:00 -1°C° 0 mm 1 mps 476 mmHg 64%
    07:00 +1°C° 0 mm 1 mps 477 mmHg 62%
    08:00 +2°C° 0 mm 1 mps 478 mmHg 59%
    09:00 +3°C° 0 mm 1 mps 478 mmHg 58%
    10:00 +3°C° 0 mm 2 mps 479 mmHg 58%
    11:00 +3°C° 0 mm 2 mps 479 mmHg 58%
    12:00 +4°C° 0.2 mm 2 mps 479 mmHg 58%
    13:00 +3°C° 0.2 mm 3 mps 479 mmHg 58%
    14:00 +3°C° 0.2 mm 3 mps 479 mmHg 57%
    15:00 +3°C° 0.4 mm 3 mps 479 mmHg 59%
    16:00 +4°C° 0.4 mm 2 mps 478 mmHg 60%
    17:00 +4°C° 0.4 mm 2 mps 478 mmHg 61%
    18:00 +3°C° 0.2 mm 2 mps 478 mmHg 65%
    19:00 +2°C° 0.2 mm 2 mps 477 mmHg 68%
    20:00 +2°C° 0.2 mm 1 mps 477 mmHg 72%
    21:00 +1°C° 0.1 mm 1 mps 477 mmHg 72%
    22:00 +1°C° 0.1 mm 1 mps 477 mmHg 73%
    23:00 +1°C° 0.1 mm 1 mps 477 mmHg 73%

    24 May, Thursday

    Time Temperature Precipitation Wind Pressure Humidity
    00:00 +1°C° 0.1 mm 1 mps 477 mmHg 74%
    01:00 +1°C° 0.1 mm 1 mps 476 mmHg 75%
    02:00 0°C° 0.1 mm 1 mps 476 mmHg 76%
    03:00 0°C° 0.1 mm 1 mps 476 mmHg 77%
    04:00 0°C° 0.1 mm 1 mps 475 mmHg 77%
    05:00 -2°C° 0.1 mm 2 mps 475 mmHg 78%
    06:00 +1°C° 0 mm 1 mps 476 mmHg 74%
    07:00 +2°C° 0 mm 1 mps 477 mmHg 69%
    08:00 +3°C° 0 mm 1 mps 478 mmHg 65%
    09:00 +4°C° 0 mm 1 mps 478 mmHg 62%
    10:00 +4°C° 0 mm 2 mps 479 mmHg 59%
    11:00 +5°C° 0 mm 2 mps 480 mmHg 56%
    12:00 +5°C° 0.1 mm 2 mps 480 mmHg 55%
    13:00 +6°C° 0.1 mm 2 mps 480 mmHg 53%
    14:00 +5°C° 0.1 mm 3 mps 480 mmHg 52%
    15:00 +6°C° 0.2 mm 2 mps 480 mmHg 51%
    16:00 +6°C° 0.2 mm 2 mps 480 mmHg 51%
    17:00 +6°C° 0.2 mm 2 mps 479 mmHg 50%
    18:00 +6°C° 0 mm 1 mps 479 mmHg 53%
    19:00 +5°C° 0 mm 1 mps 478 mmHg 55%
    20:00 +2°C° 0 mm 0 mps 477 mmHg 58%
    21:00 +3°C° 0 mm 1 mps 477 mmHg 57%
    22:00 +3°C° 0 mm 1 mps 477 mmHg 57%
    23:00 +1°C° 0 mm 2 mps 477 mmHg 56%

    25 May, Friday

    Time Temperature Precipitation Wind Pressure Humidity
    00:00 +1°C° 0 mm 2 mps 477 mmHg 56%
    01:00 +1°C° 0 mm 2 mps 476 mmHg 56%
    02:00 -1°C° 0 mm 2 mps 476 mmHg 55%
    03:00 -1°C° 0 mm 2 mps 476 mmHg 55%
    04:00 -1°C° 0 mm 2 mps 476 mmHg 55%
    05:00 -1°C° 0 mm 2 mps 476 mmHg 54%
    06:00 +2°C° 0 mm 2 mps 477 mmHg 52%
    07:00 +4°C° 0 mm 1 mps 478 mmHg 50%
    08:00 +6°C° 0 mm 1 mps 479 mmHg 47%
    09:00 +6°C° 0 mm 1 mps 479 mmHg 47%
    10:00 +7°C° 0 mm 1 mps 480 mmHg 47%
    11:00 +8°C° 0 mm 1 mps 480 mmHg 47%
    12:00 +7°C° 0.2 mm 2 mps 480 mmHg 49%
    13:00 +7°C° 0.2 mm 2 mps 480 mmHg 51%
    14:00 +7°C° 0.2 mm 2 mps 480 mmHg 53%
    15:00 +6°C° 0.4 mm 2 mps 479 mmHg 56%
    16:00 +7°C° 0.4 mm 1 mps 479 mmHg 58%
    17:00 +6°C° 0.4 mm 1 mps 479 mmHg 60%
    18:00 +6°C° 0.1 mm 1 mps 479 mmHg 62%
    19:00 +5°C° 0.1 mm 1 mps 478 mmHg 63%
    20:00 +4°C° 0.1 mm 1 mps 478 mmHg 64%
    21:00 +4°C° 0 mm 1 mps 478 mmHg 64%
    22:00 +4°C° 0 mm 1 mps 478 mmHg 64%
    23:00 +4°C° 0 mm 1 mps 478 mmHg 64%
    Show more